| time (UTC) | temp F | wind direction | speed MPH | gust MPH | rain 1hr in | rain 24hr in | rain mn in | humidity % | barometer mb |
| 20260902080710 | 74 | 77 | 3.0 | 7.0 | 0.00 | 0.00 | 0.00 | 79 | 1009.0 |
| 20260902075710 | 74 | 36 | 5.0 | 9.0 | 0.00 | 0.00 | 0.00 | 79 | 1009.1 |
| 20260902074711 | 75 | 50 | 3.0 | 7.0 | 0.00 | 0.01 | 0.00 | 77 | 1009.4 |
| 20260902073710 | 76 | 48 | 4.0 | 9.0 | 0.00 | 0.01 | 0.00 | 76 | 1009.4 |
| 20260902072710 | 77 | 135 | 3.0 | 8.0 | 0.00 | 0.01 | 0.00 | 74 | 1009.3 |
| 20260902071711 | 77 | 80 | 5.0 | 13.0 | 0.00 | 0.01 | 0.00 | 74 | 1009.4 |
| 20260902070711 | 78 | 42 | 4.0 | 6.0 | 0.00 | 0.01 | 0.00 | 72 | 1009.4 |
| 20260902064711 | 79 | 302 | 3.0 | 8.0 | 0.00 | 0.01 | 0.00 | 71 | 1009.5 |
| 20260902063711 | 79 | 332 | 2.0 | 9.0 | 0.00 | 0.01 | 0.00 | 70 | 1009.3 |
| 20260902062710 | 80 | 40 | 6.0 | 13.0 | 0.00 | 0.01 | 0.00 | 71 | 1009.5 |
| 20260902061710 | 80 | 309 | 6.0 | 14.0 | 0.00 | 0.01 | 0.00 | 65 | 1008.9 |
| 20260902055710 | 77 | 238 | 3.0 | 7.0 | 0.00 | 0.01 | 0.00 | 78 | 1008.5 |
| 20260902054710 | 77 | 56 | 1.0 | 5.0 | 0.00 | 0.01 | 0.00 | 83 | 1008.4 |
| 20260902053711 | 78 | 96 | 0.0 | 1.0 | 0.00 | 0.01 | 0.00 | 82 | 1008.3 |
| 20260902052710 | 78 | 96 | 0.0 | 2.0 | 0.00 | 0.01 | 0.00 | 82 | 1008.4 |
| 20260902051711 | 78 | 100 | 1.0 | 3.0 | 0.00 | 0.01 | 0.00 | 82 | 1008.3 |
| 20260902050711 | 79 | 140 | 2.0 | 5.0 | 0.00 | 0.01 | 0.00 | 82 | 1008.1 |
| 20260902045710 | 79 | 140 | 1.0 | 3.0 | 0.00 | 0.01 | 0.01 | 81 | 1008.3 |
| 20260902044711 | 79 | 61 | 4.0 | 8.0 | 0.00 | 0.01 | 0.01 | 81 | 1008.1 |
| 20260902043710 | 80 | 100 | 3.0 | 8.0 | 0.00 | 0.01 | 0.01 | 81 | 1008.4 |
| 20260902042710 | 80 | 73 | 5.0 | 9.0 | 0.00 | 0.01 | 0.01 | 81 | 1008.4 |
| 20260902041710 | 80 | 63 | 2.0 | 8.0 | 0.00 | 0.01 | 0.01 | 81 | 1008.5 |
| 20260902035711 | 80 | 334 | 5.0 | 8.0 | 0.00 | 0.01 | 0.01 | 81 | 1008.9 |
| 20260902033710 | 81 | 101 | 1.0 | 3.0 | 0.00 | 0.01 | 0.01 | 81 | 1008.5 |
| 20260902032710 | 81 | 79 | 0.0 | 3.0 | 0.00 | 0.01 | 0.01 | 80 | 1008.5 |
| 20260902031710 | 81 | 63 | 2.0 | 3.0 | 0.00 | 0.01 | 0.01 | 80 | 1008.5 |
| 20260902030710 | 81 | 61 | 2.0 | 3.0 | 0.00 | 0.01 | 0.01 | 80 | 1008.5 |
| 20260902025711 | 82 | 57 | 2.0 | 3.0 | 0.00 | 0.01 | 0.01 | 79 | 1008.4 |
| 20260902024711 | 82 | 96 | 1.0 | 3.0 | 0.00 | 0.01 | 0.01 | 78 | 1008.3 |
| 20260902023711 | 82 | 94 | 2.0 | 3.0 | 0.00 | 0.01 | 0.01 | 78 | 1008.2 |
| 20260902022711 | 83 | 49 | 1.0 | 3.0 | 0.00 | 0.01 | 0.01 | 78 | 1008.1 |
| 20260902021711 | 83 | 54 | 1.0 | 3.0 | 0.00 | 0.01 | 0.01 | 77 | 1007.9 |
| 20260902020710 | 83 | 59 | 2.0 | 3.0 | 0.00 | 0.01 | 0.01 | 76 | 1007.7 |
| 20260902014710 | 84 | 176 | 0.0 | 0.0 | 0.00 | 0.01 | 0.01 | 73 | 1007.4 |
| 20260902013710 | 85 | 210 | 0.0 | 0.0 | 0.00 | 0.01 | 0.01 | 72 | 1007.3 |
| 20260902012710 | 86 | 210 | 0.0 | 0.0 | 0.00 | 0.01 | 0.01 | 71 | 1007.2 |
| 20260902011711 | 87 | 210 | 0.0 | 0.0 | 0.00 | 0.01 | 0.01 | 69 | 1007.2 |
| 20260902010710 | 87 | 209 | 0.0 | 1.0 | 0.00 | 0.01 | 0.01 | 68 | 1007.5 |
| 20260902004710 | 88 | 175 | 0.0 | 2.0 | 0.00 | 0.01 | 0.01 | 66 | 1007.4 |
| 20260902003711 | 88 | 178 | 1.0 | 3.0 | 0.00 | 0.01 | 0.01 | 65 | 1007.4 |
| 20260902002710 | 89 | 189 | 1.0 | 5.0 | 0.00 | 0.01 | 0.01 | 65 | 1007.3 |
| 20260902001710 | 89 | 181 | 2.0 | 3.0 | 0.00 | 0.01 | 0.01 | 65 | 1007.3 |
| 20260901235710 | 89 | 161 | 3.0 | 5.0 | 0.00 | 0.01 | 0.01 | 64 | 1007.4 |
| 20260901234710 | 89 | 178 | 5.0 | 7.0 | 0.00 | 0.01 | 0.01 | 63 | 1007.5 |
| 20260901233711 | 90 | 175 | 4.0 | 9.0 | 0.00 | 0.01 | 0.01 | 63 | 1007.6 |
| 20260901232710 | 90 | 188 | 5.0 | 7.0 | 0.00 | 0.01 | 0.01 | 62 | 1007.7 |
| 20260901231711 | 91 | 164 | 5.0 | 10.0 | 0.00 | 0.01 | 0.01 | 61 | 1007.7 |
| 20260901230710 | 91 | 173 | 5.0 | 9.0 | 0.00 | 0.01 | 0.01 | 62 | 1007.8 |
| 20260901225710 | 91 | 165 | 5.0 | 10.0 | 0.00 | 0.01 | 0.01 | 60 | 1007.9 |
| 20260901224711 | 91 | 162 | 6.0 | 10.0 | 0.00 | 0.01 | 0.01 | 60 | 1008.0 |
| 20260901223711 | 91 | 171 | 6.0 | 10.0 | 0.00 | 0.01 | 0.01 | 60 | 1008.1 |
| 20260901222710 | 91 | 189 | 3.0 | 12.0 | 0.00 | 0.01 | 0.01 | 60 | 1008.1 |
| 20260901221711 | 92 | 171 | 4.0 | 10.0 | 0.00 | 0.01 | 0.01 | 58 | 1008.1 |
| 20260901215711 | 92 | 166 | 8.0 | 12.0 | 0.00 | 0.01 | 0.01 | 55 | 1008.2 |
| 20260901214710 | 92 | 164 | 5.0 | 10.0 | 0.00 | 0.01 | 0.01 | 56 | 1008.4 |
| 20260901213711 | 92 | 194 | 6.0 | 9.0 | 0.00 | 0.01 | 0.01 | 56 | 1008.4 |
| 20260901212710 | 92 | 164 | 5.0 | 9.0 | 0.00 | 0.01 | 0.01 | 56 | 1008.5 |
| 20260901211710 | 92 | 197 | 6.0 | 12.0 | 0.00 | 0.01 | 0.01 | 55 | 1008.5 |
| 20260901204711 | 92 | 175 | 6.0 | 14.0 | 0.00 | 0.01 | 0.01 | 56 | 1008.8 |
| 20260901203710 | 92 | 171 | 6.0 | 12.0 | 0.00 | 0.01 | 0.01 | 56 | 1008.9 |
| 20260901202710 | 92 | 171 | 5.0 | 14.0 | 0.00 | 0.01 | 0.01 | 57 | 1008.9 |
| 20260901201710 | 91 | 191 | 2.0 | 12.0 | 0.00 | 0.01 | 0.01 | 60 | 1009.1 |
| 20260901200711 | 90 | 170 | 3.0 | 9.0 | 0.00 | 0.01 | 0.01 | 60 | 1009.2 |
| 20260901195710 | 90 | 138 | 6.0 | 12.0 | 0.00 | 0.01 | 0.01 | 62 | 1009.3 |
| 20260901194710 | 90 | 176 | 6.0 | 14.0 | 0.00 | 0.01 | 0.01 | 60 | 1009.6 |
| 20260901193711 | 89 | 187 | 6.0 | 9.0 | 0.00 | 0.01 | 0.01 | 62 | 1009.6 |
| 20260901192711 | 88 | 170 | 6.0 | 12.0 | 0.00 | 0.01 | 0.01 | 66 | 1009.6 |
| 20260901191710 | 88 | 94 | 7.0 | 17.0 | 0.00 | 0.01 | 0.01 | 63 | 1009.6 |
| 20260901185710 | 88 | 190 | 8.0 | 18.0 | 0.00 | 0.01 | 0.01 | 66 | 1009.6 |
| 20260901184711 | 88 | 122 | 9.0 | 15.0 | 0.00 | 0.01 | 0.01 | 66 | 1009.6 |
| 20260901183710 | 88 | 139 | 7.0 | 14.0 | 0.00 | 0.01 | 0.01 | 68 | 1009.6 |
| 20260901182710 | 88 | 81 | 7.0 | 18.0 | 0.00 | 0.01 | 0.01 | 68 | 1009.7 |
| 20260901175711 | 87 | 94 | 7.0 | 10.0 | 0.00 | 0.01 | 0.01 | 68 | 1010.1 |
| 20260901174710 | 87 | 96 | 7.0 | 12.0 | 0.00 | 0.01 | 0.01 | 69 | 1010.2 |
| 20260901173710 | 87 | 94 | 5.0 | 10.0 | 0.00 | 0.01 | 0.01 | 72 | 1010.1 |
| 20260901172710 | 87 | 115 | 5.0 | 9.0 | 0.00 | 0.01 | 0.01 | 70 | 1010.1 |
| 20260901171711 | 86 | 58 | 5.0 | 12.0 | 0.00 | 0.01 | 0.01 | 71 | 1010.2 |
| 20260901170710 | 86 | 68 | 5.0 | 12.0 | 0.00 | 0.01 | 0.01 | 70 | 1010.1 |
| 20260901165711 | 86 | 52 | 3.0 | 9.0 | 0.00 | 0.01 | 0.01 | 71 | 1010.2 |
| 20260901164710 | 86 | 315 | 3.0 | 9.0 | 0.00 | 0.01 | 0.01 | 70 | 1010.3 |
| 20260901162711 | 84 | 44 | 5.0 | 12.0 | 0.00 | 0.01 | 0.01 | 73 | 1010.3 |
| 20260901161710 | 84 | 36 | 5.0 | 9.0 | 0.00 | 0.01 | 0.01 | 72 | 1010.4 |
| 20260901160711 | 84 | 327 | 4.0 | 8.0 | 0.00 | 0.01 | 0.01 | 71 | 1010.5 |
| 20260901155710 | 83 | 29 | 3.0 | 9.0 | 0.00 | 0.01 | 0.01 | 71 | 1010.5 |
| 20260901154710 | 83 | 42 | 3.0 | 7.0 | 0.00 | 0.01 | 0.01 | 71 | 1010.3 |
| 20260901153710 | 83 | 23 | 5.0 | 8.0 | 0.00 | 0.01 | 0.01 | 72 | 1010.4 |
| 20260901152711 | 83 | 47 | 3.0 | 7.0 | 0.00 | 0.01 | 0.01 | 72 | 1010.3 |
| 20260901151712 | 83 | 61 | 4.0 | 7.0 | 0.00 | 0.01 | 0.01 | 69 | 1010.3 |
| 20260901150710 | 83 | 11 | 3.0 | 6.0 | 0.00 | 0.01 | 0.01 | 70 | 1010.3 |
| 20260901145710 | 83 | 0 | 2.0 | 5.0 | 0.00 | 0.01 | 0.01 | 70 | 1010.5 |
| 20260901144710 | 82 | 57 | 0.0 | 3.0 | 0.00 | 0.01 | 0.01 | 71 | 1010.4 |
| 20260901143711 | 81 | 69 | 1.0 | 3.0 | 0.00 | 0.01 | 0.01 | 73 | 1010.6 |
| 20260901142711 | 80 | 115 | 1.0 | 3.0 | 0.00 | 0.01 | 0.01 | 75 | 1010.6 |
| 20260901141711 | 79 | 69 | 1.0 | 3.0 | 0.00 | 0.01 | 0.01 | 76 | 1010.9 |
| 20260901140710 | 79 | 117 | 2.0 | 3.0 | 0.00 | 0.01 | 0.01 | 80 | 1010.7 |
| 20260901134710 | 77 | 56 | 2.0 | 3.0 | 0.00 | 0.01 | 0.01 | 86 | 1011.1 |
| 20260901133712 | 77 | 108 | 1.0 | 2.0 | 0.00 | 0.01 | 0.01 | 86 | 1011.2 |
| 20260901132710 | 76 | 101 | 1.0 | 2.0 | 0.00 | 0.01 | 0.01 | 88 | 1011.2 |
| 20260901131711 | 75 | 101 | 0.0 | 0.0 | 0.00 | 0.01 | 0.01 | 90 | 1011.2 |
| 20260901130710 | 74 | 101 | 0.0 | 2.0 | 0.00 | 0.01 | 0.01 | 90 | 1011.0 |
| 20260901124711 | 74 | 69 | 0.0 | 0.0 | 0.00 | 0.01 | 0.01 | 90 | 1010.8 |
| 20260901123711 | 73 | 69 | 0.0 | 3.0 | 0.00 | 0.01 | 0.01 | 90 | 1010.6 |
| 20260901122711 | 73 | 88 | 1.0 | 3.0 | 0.00 | 0.01 | 0.01 | 90 | 1010.5 |
| 20260901121711 | 73 | 55 | 2.0 | 3.0 | 0.00 | 0.01 | 0.01 | 90 | 1010.3 |
| 20260901120710 | 73 | 55 | 0.0 | 3.0 | 0.00 | 0.01 | 0.01 | 90 | 1010.4 |
| 20260901115711 | 73 | 49 | 1.0 | 3.0 | 0.00 | 0.01 | 0.01 | 90 | 1010.3 |
| 20260901114711 | 73 | 48 | 0.0 | 3.0 | 0.00 | 0.01 | 0.01 | 90 | 1010.2 |
| 20260901113711 | 73 | 59 | 1.0 | 2.0 | 0.00 | 0.01 | 0.01 | 90 | 1010.2 |
| 20260901112711 | 74 | 76 | 0.0 | 3.0 | 0.00 | 0.01 | 0.01 | 90 | 1010.1 |
| 20260901111711 | 74 | 48 | 2.0 | 3.0 | 0.00 | 0.01 | 0.01 | 90 | 1009.9 |
| 20260901110710 | 74 | 66 | 0.0 | 3.0 | 0.00 | 0.01 | 0.01 | 90 | 1009.9 |
| 20260901105711 | 74 | 54 | 1.0 | 5.0 | 0.00 | 0.01 | 0.01 | 90 | 1009.9 |
| 20260901104710 | 74 | 59 | 2.0 | 3.0 | 0.00 | 0.01 | 0.01 | 89 | 1010.0 |
| 20260901102710 | 75 | 89 | 2.0 | 3.0 | 0.00 | 0.01 | 0.01 | 88 | 1009.9 |
| 20260901101711 | 75 | 68 | 1.0 | 2.0 | 0.00 | 0.01 | 0.01 | 87 | 1010.1 |
| 20260901100710 | 75 | 137 | 0.0 | 2.0 | 0.00 | 0.01 | 0.01 | 87 | 1010.2 |
| 20260901095711 | 75 | 137 | 0.0 | 2.0 | 0.00 | 0.01 | 0.01 | 86 | 1010.2 |
| 20260901094711 | 76 | 137 | 1.0 | 3.0 | 0.00 | 0.01 | 0.01 | 85 | 1010.2 |
| 20260901093710 | 76 | 108 | 0.0 | 2.0 | 0.00 | 0.01 | 0.01 | 85 | 1010.2 |
| 20260901091711 | 77 | 123 | 2.0 | 3.0 | 0.00 | 0.01 | 0.01 | 84 | 1010.4 |
| 20260901090710 | 77 | 61 | 0.0 | 0.0 | 0.00 | 0.01 | 0.01 | 84 | 1010.3 |
| 20260901085710 | 77 | 61 | 0.0 | 2.0 | 0.00 | 0.01 | 0.01 | 84 | 1010.5 |
| 20260901084711 | 77 | 34 | 1.0 | 2.0 | 0.01 | 0.01 | 0.01 | 83 | 1010.8 |
| 20260901083710 | 77 | 109 | 1.0 | 7.0 | 0.01 | 0.01 | 0.01 | 83 | 1010.4 |
| 20260901082711 | 77 | 127 | 5.0 | 7.0 | 0.01 | 0.01 | 0.01 | 84 | 1010.3 |
| 20260901081710 | 77 | 100 | 2.0 | 7.0 | 0.01 | 0.01 | 0.01 | 85 | 1010.4 |